{"data":{"norad_id":67640,"epoch":"2026-05-25T02:39:43.900992Z","epoch_age_seconds":61869,"freshness":"FRESH","line1":"1 67640U 26020Z   26145.11092478  .00014786  00000+0  54548-3 0  9997","line2":"2 67640  43.0053  67.9804 0001251 266.9457  93.1252 15.27597101 17808","mean_motion":15.27597101,"eccentricity":0.0001251,"inclination_deg":43.0053,"raan_deg":67.9804,"arg_perigee_deg":266.9457,"mean_anomaly_deg":93.1252,"bstar":0.00054548,"rev_number":1780,"period_min":94.265693425141,"perigee_km":482.13956199657,"apogee_km":483.85621794604,"semimajor_km":6861.1348899713,"source":"CELESTRAK","updated_at":"2026-05-25T13:38:21.654486Z"}}